Location: Madrid
(40.4000°N, 3.6830°W)
Time: 22:52:49
(UTC+02:00)

ISS - Pass Details

Date: 19 July 2017
Orbit: 400 x 408 km, 51.6° (Epoch: 24 July)

Event Time Altitude Azimuth Distance (km) Brightness Sun altitude
Rises 05:18:15 0° 311° (NW) 2,316 0.0 -16.2°
Reaches altitude 10° 05:21:05 10° 338° (NNW) 1,457 -0.7 -15.8°
Maximum altitude 05:22:55 14° 13° (NNE) 1,236 -0.5 -15.6°
Drops below altitude 10° 05:24:45 10° 47° (NE) 1,458 0.4 -15.4°
Sets 05:27:35 0° 74° (ENE) 2,318 1.1 -15.0°
